Content
SEND FEEDBACK

Daily
Averages
Monthly
Summary
United States of America

EASTON, PENNSYLVANIA


Home > North America > United States > Pennsylvania
Elevation: 200 feet     Latitude: 40 42N     Longitude: 075 12W

WEATHER
 
SELECT A DAY
Number of Records: 201,924;   Date Range: 1/1/95 - 8/17/14
 
SHARE

PRINT THIS DATA

[ ← Previous Day ]
WEATHER ALMANAC - FEBRUARY 13, 2013
[ Next Day → ]
[ °C ]   °F
Weather ElementAverageHighLow
Temperature33.8 °F42.1 °F (12:51 pm)24.1 °F (4:51 am)
Dewpoint27.1 °F33.1 °F (8:51 pm)19.9 °F (4:51 am)
Humidity78 %96 % (8:51 pm)53 % (12:51 pm)
Barometer29.80 in29.97 in (1:51 am)29.70 in (5:51 pm)
Wind Speed1.6 mph6.9 mph (10:51 am)
Weather ElementAverage
Visibility6.4 mi
Wind DirectionNE (43 °)

Weather ElementTotal
Precipitation0.12 in
Heating Degree Days31.9 (Base 65)
Averaged from 30 records on February 13, 2013
WEATHER CONDITIONS BREAKOUT
WIND DIRECTION BREAKOUT
WEATHER BY HOUR - FEBRUARY 13, 2013
[ °C ]   °F
Local TimeTemperatureDewpointHumidityBarometerVisibilityWind DirectionWind SpeedGust SpeedPrecipitationEventsConditions
1:51 AM30.9 °F21.9 °F69 %29.97 in10.0 miWNW (290°)4.6 mphClear
2:51 AM26.1 °F21.0 °F81 %29.96 in10.0 miCalmClear
3:51 AM26.1 °F21.0 °F81 %29.93 in10.0 miCalmClear
4:51 AM24.1 °F19.9 °F84 %29.93 in10.0 miCalmClear
5:51 AM25.0 °F21.0 °F85 %29.92 in9.0 miCalmClear
6:51 AM24.1 °F21.0 °F88 %29.92 in9.0 miCalmClear
7:51 AM25.0 °F21.9 °F88 %29.91 in6.0 miCalmClear
8:51 AM30.9 °F25.0 °F79 %29.89 in8.0 miCalmClear
9:51 AM36.0 °F25.0 °F64 %29.87 in10.0 miENE (70°)3.5 mphClear
10:51 AM37.9 °F24.1 °F57 %29.89 in10.0 miSSE (150°)6.9 mphClear
11:51 AM39.9 °F25.0 °F55 %29.86 in10.0 miCalmClear
12:51 PM42.1 °F26.1 °F53 %29.81 in10.0 miVariable3.5 mphClear
1:51 PM41.0 °F26.1 °F55 %29.78 in10.0 miNNE (30°)4.6 mphClear
2:51 PM41.0 °F26.1 °F55 %29.75 in10.0 miNE (40°)4.6 mphScattered Clouds
3:51 PM41.0 °F26.1 °F55 %29.74 in10.0 miENE (70°)3.5 mphMostly Cloudy
4:51 PM39.9 °F27.0 °F60 %29.72 in10.0 miEast (80°)5.8 mphOvercast
5:51 PM37.9 °F27.0 °F65 %29.70 in10.0 miNNE (20°)3.5 mphOvercast
6:44 PM37.4 °F28.4 °F70 %29.70 in6.0 miCalm0.00 inSnowLight Snow
6:51 PM36.0 °F28.9 °F76 %29.72 in6.0 miNW (320°)3.5 mph0.00 inSnowLight Snow
7:43 PM35.6 °F30.2 °F81 %29.72 in2.0 miCalm0.01 inSnowLight Snow
7:51 PM34.0 °F30.9 °F89 %29.73 in2.0 miCalm0.02 inSnowLight Snow
8:00 PM33.8 °F32.0 °F93 %29.72 in2.5 miCalm0.01 inSnowLight Snow
8:51 PM34.0 °F33.1 °F96 %29.72 in2.0 miCalm0.01 inOvercast
9:21 PM33.8 °F32.0 °F93 %29.71 in2.0 miCalm0.01 inSnowLight Snow
9:36 PM33.8 °F32.0 °F93 %29.71 in1.5 miCalm0.01 inSnowLight Snow
9:51 PM33.1 °F32.0 °F96 %29.72 in2.0 miCalm0.02 inSnowLight Snow
10:06 PM33.8 °F32.0 °F93 %29.71 in1.2 miCalm0.00 inSnowLight Snow
10:51 PM33.1 °F32.0 °F96 %29.73 in1.0 miCalm0.01 inSnowLight Snow
11:43 PM33.8 °F32.0 °F93 %29.71 in1.0 miCalm0.01 inOvercast
11:51 PM33.1 °F32.0 °F96 %29.73 in1.5 miSW (220°)3.5 mph0.01 inOvercast
Hourly data recorded from KABE, located miles away from Easton, Pennsylvania







STORIES FROM OUR PARTNERS